Вернуться в каталог

ARIANE 44P R/B

АктивенHEO
NORAD 25461·ROCKET BODY·🇫🇷 France

Запущен Aug 25, 1998 с Guiana Space Centre

Loading…

Ближайшие Пролёты (ближайшие 24 часа)

TLE

СвежийSource: Space-Track

Эпоха: Sep 14, 2026, 08:31 UTC

1 25461U 98049B   26257.35488339  .00008134  00000-0  13707-2 0  9999
2 25461   4.0543 237.4998 5865612 258.6920  33.5426  4.25101383308318

Отслеживайте ARIANE 44P R/B в реальном времени с AllMySat

Download on the App Store